When you browse on this site, cookies collect data to enhance your experience and personalize the content and advertising you see.
Visit our Privacy Policy to learn more. By continuing to use the site, you agree to this use of cookies and data.

Stündliche Wetter Herāt

Heute, 9 August, Sonntag

Zeit Temperatur Niederschläge Wind Luftdruck Luftfeuchtigkeit
00:00 +23°C° 0 mm 4 m/S 675 mmHg 38%
01:00 +22°C° 0 mm 4 m/S 675 mmHg 40%
02:00 +21°C° 0 mm 3 m/S 674 mmHg 41%
03:00 +21°C° 0 mm 3 m/S 674 mmHg 43%
04:00 +20°C° 0 mm 3 m/S 674 mmHg 44%
05:00 +22°C° 0 mm 3 m/S 674 mmHg 40%
06:00 +25°C° 0 mm 3 m/S 675 mmHg 36%
07:00 +26°C° 0 mm 4 m/S 676 mmHg 32%
08:00 +29°C° 0 mm 4 m/S 676 mmHg 28%
09:00 +32°C° 0 mm 5 m/S 676 mmHg 24%
10:00 +34°C° 0 mm 5 m/S 676 mmHg 20%
11:00 +36°C° 0 mm 6 m/S 676 mmHg 19%
12:00 +38°C° 0 mm 7 m/S 676 mmHg 17%
13:00 +39°C° 0 mm 8 m/S 676 mmHg 15%
14:00 +39°C° 0 mm 8 m/S 676 mmHg 15%
15:00 +39°C° 0 mm 9 m/S 676 mmHg 15%
16:00 +39°C° 0 mm 10 m/S 675 mmHg 14%
17:00 +37°C° 0 mm 9 m/S 675 mmHg 16%
18:00 +34°C° 0 mm 8 m/S 675 mmHg 18%
19:00 +32°C° 0 mm 8 m/S 675 mmHg 19%
20:00 +29°C° 0 mm 8 m/S 675 mmHg 20%
21:00 +28°C° 0 mm 8 m/S 675 mmHg 22%
22:00 +27°C° 0 mm 7 m/S 675 mmHg 23%
23:00 +26°C° 0 mm 6 m/S 674 mmHg 24%

Morgen, 10 August, Montag

Zeit Temperatur Niederschläge Wind Luftdruck Luftfeuchtigkeit
00:00 +24°C° 0 mm 6 m/S 674 mmHg 26%
01:00 +23°C° 0 mm 5 m/S 674 mmHg 27%
02:00 +22°C° 0 mm 4 m/S 674 mmHg 29%
03:00 +21°C° 0 mm 4 m/S 674 mmHg 30%
04:00 +21°C° 0 mm 3 m/S 673 mmHg 31%
05:00 +24°C° 0 mm 3 m/S 674 mmHg 28%
06:00 +26°C° 0 mm 3 m/S 675 mmHg 24%
07:00 +28°C° 0 mm 4 m/S 676 mmHg 21%
08:00 +30°C° 0 mm 5 m/S 676 mmHg 17%
09:00 +34°C° 0 mm 6 m/S 676 mmHg 14%
10:00 +37°C° 0 mm 8 m/S 677 mmHg 10%
11:00 +38°C° 0 mm 9 m/S 677 mmHg 9%
12:00 +39°C° 0 mm 10 m/S 676 mmHg 9%
13:00 +41°C° 0 mm 12 m/S 676 mmHg 8%
14:00 +39°C° 0 mm 12 m/S 676 mmHg 9%
15:00 +39°C° 0 mm 12 m/S 676 mmHg 9%
16:00 +39°C° 0 mm 12 m/S 675 mmHg 10%
17:00 +37°C° 0 mm 11 m/S 675 mmHg 11%
18:00 +34°C° 0 mm 10 m/S 675 mmHg 13%
19:00 +32°C° 0 mm 8 m/S 675 mmHg 14%
20:00 +30°C° 0 mm 7 m/S 675 mmHg 16%
21:00 +29°C° 0 mm 7 m/S 675 mmHg 17%
22:00 +28°C° 0 mm 6 m/S 675 mmHg 18%
23:00 +27°C° 0 mm 5 m/S 675 mmHg 19%

übermorgen, 11 August, Dienstag

Zeit Temperatur Niederschläge Wind Luftdruck Luftfeuchtigkeit
00:00 +26°C° 0 mm 5 m/S 675 mmHg 20%
01:00 +26°C° 0 mm 5 m/S 675 mmHg 21%
02:00 +25°C° 0 mm 4 m/S 675 mmHg 22%
03:00 +23°C° 0 mm 4 m/S 674 mmHg 22%
04:00 +23°C° 0 mm 4 m/S 674 mmHg 23%
05:00 +25°C° 0 mm 5 m/S 675 mmHg 21%
06:00 +27°C° 0 mm 6 m/S 675 mmHg 19%
07:00 +29°C° 0 mm 6 m/S 676 mmHg 17%
08:00 +32°C° 0 mm 8 m/S 676 mmHg 15%
09:00 +34°C° 0 mm 10 m/S 676 mmHg 13%
10:00 +37°C° 0 mm 12 m/S 676 mmHg 11%
11:00 +38°C° 0 mm 13 m/S 676 mmHg 11%
12:00 +39°C° 0 mm 13 m/S 676 mmHg 10%
13:00 +41°C° 0 mm 14 m/S 676 mmHg 9%
14:00 +41°C° 0 mm 14 m/S 676 mmHg 10%
15:00 +40°C° 0 mm 14 m/S 675 mmHg 10%
16:00 +40°C° 0 mm 15 m/S 675 mmHg 10%
17:00 +37°C° 0 mm 14 m/S 675 mmHg 12%
18:00 +34°C° 0 mm 13 m/S 675 mmHg 14%
19:00 +33°C° 0 mm 13 m/S 675 mmHg 16%
20:00 +31°C° 0 mm 12 m/S 675 mmHg 18%
21:00 +29°C° 0 mm 11 m/S 675 mmHg 20%
22:00 +28°C° 0 mm 10 m/S 675 mmHg 22%
23:00 +27°C° 0 mm 8 m/S 675 mmHg 23%

12 August, Mittwoch

Zeit Temperatur Niederschläge Wind Luftdruck Luftfeuchtigkeit
00:00 +26°C° 0 mm 7 m/S 675 mmHg 25%
01:00 +23°C° 0 mm 5 m/S 674 mmHg 26%
02:00 +22°C° 0 mm 4 m/S 674 mmHg 27%
03:00 +21°C° 0 mm 4 m/S 674 mmHg 29%
04:00 +20°C° 0 mm 3 m/S 673 mmHg 30%
05:00 +23°C° 0 mm 4 m/S 674 mmHg 26%
06:00 +26°C° 0 mm 5 m/S 675 mmHg 23%
07:00 +28°C° 0 mm 5 m/S 675 mmHg 19%
08:00 +32°C° 0 mm 7 m/S 676 mmHg 16%
09:00 +34°C° 0 mm 9 m/S 676 mmHg 12%
10:00 +37°C° 0 mm 11 m/S 676 mmHg 9%
11:00 +38°C° 0 mm 12 m/S 676 mmHg 8%
12:00 +39°C° 0 mm 13 m/S 676 mmHg 8%
13:00 +41°C° 0 mm 14 m/S 675 mmHg 7%
14:00 +41°C° 0 mm 14 m/S 675 mmHg 7%
15:00 +41°C° 0 mm 15 m/S 675 mmHg 6%
16:00 +40°C° 0 mm 15 m/S 675 mmHg 6%
17:00 +37°C° 0 mm 14 m/S 675 mmHg 7%
18:00 +34°C° 0 mm 13 m/S 675 mmHg 8%
19:00 +32°C° 0 mm 12 m/S 675 mmHg 8%
20:00 +29°C° 0 mm 9 m/S 674 mmHg 10%
21:00 +27°C° 0 mm 7 m/S 674 mmHg 11%
22:00 +26°C° 0 mm 4 m/S 674 mmHg 12%
23:00 +25°C° 0 mm 4 m/S 674 mmHg 13%

13 August, Donnerstag

Zeit Temperatur Niederschläge Wind Luftdruck Luftfeuchtigkeit
00:00 +24°C° 0 mm 3 m/S 674 mmHg 14%
01:00 +22°C° 0 mm 3 m/S 673 mmHg 15%
02:00 +21°C° 0 mm 3 m/S 673 mmHg 15%
03:00 +21°C° 0 mm 3 m/S 673 mmHg 15%
04:00 +21°C° 0 mm 3 m/S 673 mmHg 15%
05:00 +24°C° 0 mm 3 m/S 674 mmHg 14%
06:00 +27°C° 0 mm 3 m/S 675 mmHg 12%
07:00 +29°C° 0 mm 4 m/S 675 mmHg 10%
08:00 +33°C° 0 mm 5 m/S 676 mmHg 9%
09:00 +36°C° 0 mm 6 m/S 676 mmHg 9%
10:00 +40°C° 0 mm 8 m/S 677 mmHg 8%
11:00 +40°C° 0 mm 9 m/S 676 mmHg 9%
12:00 +42°C° 0 mm 11 m/S 676 mmHg 9%
13:00 +43°C° 0 mm 12 m/S 675 mmHg 9%
14:00 +42°C° 0 mm 12 m/S 675 mmHg 9%
15:00 +42°C° 0 mm 12 m/S 675 mmHg 10%
16:00 +42°C° 0 mm 12 m/S 674 mmHg 10%
17:00 +39°C° 0 mm 11 m/S 674 mmHg 12%
18:00 +35°C° 0 mm 9 m/S 674 mmHg 14%
19:00 +33°C° 0 mm 8 m/S 674 mmHg 16%
20:00 +32°C° 0 mm 7 m/S 674 mmHg 18%
21:00 +30°C° 0 mm 6 m/S 674 mmHg 20%
22:00 +28°C° 0 mm 5 m/S 674 mmHg 21%
23:00 +27°C° 0 mm 4 m/S 674 mmHg 22%

14 August, Freitag

Zeit Temperatur Niederschläge Wind Luftdruck Luftfeuchtigkeit
00:00 +27°C° 0 mm 4 m/S 673 mmHg 23%
01:00 +26°C° 0 mm 4 m/S 673 mmHg 24%
02:00 +26°C° 0 mm 3 m/S 673 mmHg 24%
03:00 +25°C° 0 mm 3 m/S 673 mmHg 24%
04:00 +25°C° 0 mm 3 m/S 673 mmHg 24%
05:00 +27°C° 0 mm 3 m/S 673 mmHg 22%
06:00 +29°C° 0 mm 3 m/S 674 mmHg 19%
07:00 +31°C° 0 mm 3 m/S 675 mmHg 17%
08:00 +34°C° 0 mm 4 m/S 675 mmHg 16%
09:00 +37°C° 0 mm 5 m/S 675 mmHg 14%
10:00 +40°C° 0 mm 5 m/S 675 mmHg 12%
11:00 +41°C° 0 mm 7 m/S 675 mmHg 12%
12:00 +43°C° 0 mm 9 m/S 675 mmHg 11%
13:00 +44°C° 0 mm 10 m/S 675 mmHg 10%
14:00 +44°C° 0 mm 11 m/S 674 mmHg 10%
15:00 +44°C° 0 mm 11 m/S 674 mmHg 11%
16:00 +43°C° 0 mm 11 m/S 674 mmHg 11%
17:00 +40°C° 0 mm 10 m/S 674 mmHg 13%
18:00 +38°C° 0 mm 9 m/S 673 mmHg 14%
19:00 +34°C° 0 mm 8 m/S 673 mmHg 16%
20:00 +33°C° 0 mm 7 m/S 673 mmHg 18%
21:00 +32°C° 0 mm 6 m/S 673 mmHg 19%
22:00 +29°C° 0 mm 4 m/S 673 mmHg 20%
23:00 +29°C° 0 mm 4 m/S 673 mmHg 21%
Mehr zeigen